GW6749 Weather Reports


time (UTC)temp
F
wind
direction
speed
knots
gust
knots
rain 1hr
in
rain 24hr
in
rain mn
in
humidity
%
barometer
mb
20260506134522 65 167 3.5 7.8 0.00 0.00 0.00 78 1008.7
20260506133031 65 196 1.7 8.7 0.00 0.00 0.00 79 1008.5
20260506131525 64 166 2.6 7.0 0.00 0.00 0.00 79 1008.3
20260506130018 64 228 1.7 8.7 0.00 0.00 0.00 79 1008.3
20260506124522 64 160 1.7 5.2 0.00 0.00 0.00 80 1008.4
20260506123024 64 210 0.9 9.6 0.00 0.00 0.00 80 1008.3
20260506121527 64 163 2.6 7.0 0.00 0.00 0.00 80 1008.4
20260506120027 64 177 2.6 8.7 0.00 0.00 0.00 80 1008.2
20260506114531 64 153 1.7 7.8 0.00 0.00 0.00 79 1008.5
20260506113022 64 186 3.5 7.8 0.00 0.00 0.00 79 1008.5
20260506111523 64 220 0.9 8.7 0.00 0.00 0.00 79 1008.2
20260506110032 64 165 2.6 8.7 0.00 0.00 0.00 79 1008.1
20260506104514 64 149 0.9 6.1 0.00 0.00 0.00 79 1008.1
20260506103018 64 172 0.0 7.0 0.00 0.00 0.00 78 1008.2
20260506101524 64 290 2.6 8.7 0.00 0.00 0.00 78 1008.1
20260506100026 64 178 1.7 10.4 0.00 0.00 0.00 77 1008.1
20260506094514 64 155 0.9 7.0 0.00 0.00 0.00 76 1007.9
20260506093020 64 161 2.6 7.8 0.00 0.00 0.00 75 1008.1
20260506091523 64 160 1.7 5.2 0.00 0.00 0.00 74 1008.1
20260506090025 64 144 0.9 5.2 0.00 0.00 0.00 72 1007.8
20260506084526 65 271 1.7 7.8 0.00 0.00 0.00 72 1008.1
20260506083014 65 183 0.0 4.3 0.00 0.00 0.00 71 1008.1
20260506081518 65 137 1.7 6.1 0.00 0.00 0.00 69 1008.3
20260506073027 66 225 0.0 5.2 0.00 0.00 0.00 67 1008.3
20260506071518 67 219 0.0 6.1 0.00 0.00 0.00 66 1008.3
20260506061528 67 304 1.7 7.8 0.00 0.00 0.00 64 1008.8
20260506044529 69 154 1.7 8.7 0.00 0.00 0.00 60 1009.3
20260506043026 69 162 1.7 8.7 0.00 0.00 0.00 58 1009.2
20260506041526 70 159 1.7 6.1 0.00 0.00 0.00 56 1009.2
20260506040026 70 331 2.6 8.7 0.00 0.00 0.00 55 1009.0
20260506034530 71 130 0.9 7.8 0.00 0.00 0.00 54 1009.0
20260506033028 71 227 0.0 6.1 0.00 0.00 0.00 53 1008.9
20260506031531 72 161 0.9 7.8 0.00 0.00 0.00 52 1008.8
20260506030050 72 200 1.7 12.2 0.00 0.00 0.00 51 1008.7
20260506024531 72 70 0.9 7.8 0.00 0.00 0.00 51 1008.8
20260506023030 72 150 0.9 7.8 0.00 0.00 0.00 50 1008.8
20260506021524 73 244 2.6 7.0 0.00 0.00 0.00 49 1008.8
20260506020026 73 169 1.7 8.7 0.00 0.00 0.00 48 1008.7
20260506014527 73 225 2.6 5.2 0.00 0.00 0.00 46 1008.7
20260506013028 74 147 3.5 7.8 0.00 0.00 0.00 45 1008.5
20260506011535 74 196 0.9 5.2 0.00 0.00 0.00 45 1008.4
20260506010020 75 158 0.9 8.7 0.00 0.00 0.00 43 1008.2
20260506004542 74 156 1.7 7.0 0.00 0.00 0.00 44 1008.1
20260506003010 74 159 0.0 7.0 0.00 0.00 0.00 45 1008.0
20260506001509 75 199 1.7 7.8 0.00 0.00 0.00 44 1007.9
20260506000010 75 176 1.7 10.4 0.00 0.00 0.00 44 1007.8
20260505234506 75 211 1.7 8.7 0.00 0.00 0.00 44 1007.7
20260505233010 76 198 0.0 8.7 0.00 0.00 0.00 43 1007.6
20260505231516 76 140 0.9 7.0 0.00 0.00 0.00 42 1007.4
20260505230008 77 349 2.6 7.8 0.00 0.00 0.00 41 1007.3
20260505224512 77 165 3.5 12.2 0.00 0.00 0.00 41 1007.1
20260505223011 77 150 1.7 10.4 0.00 0.00 0.00 40 1006.9
20260505221509 78 146 2.6 10.4 0.00 0.00 0.00 40 1006.8
20260505220012 78 242 3.5 11.3 0.00 0.00 0.00 39 1006.7
20260505214513 79 219 5.2 11.3 0.00 0.00 0.00 37 1006.2
20260505213011 79 84 2.6 11.3 0.00 0.00 0.00 38 1006.3
20260505211514 80 257 3.5 11.3 0.00 0.00 0.00 37 1006.3
20260505210012 81 158 3.5 10.4 0.00 0.00 0.00 36 1006.3
20260505204514 82 200 2.6 13.9 0.00 0.00 0.00 35 1005.8
20260505203024 81 176 2.6 17.4 0.00 0.00 0.00 37 1005.9
20260505201513 81 149 3.5 15.6 0.00 0.00 0.00 36 1006.2
20260505200014 83 164 6.1 13.9 0.00 0.00 0.00 36 1006.4
20260505194516 81 283 4.3 11.3 0.00 0.00 0.00 37 1006.8
20260505193014 81 200 4.3 13.0 0.00 0.00 0.00 38 1006.9
20260505191516 82 247 2.6 13.9 0.00 0.00 0.00 37 1007.0
20260505190032 81 162 5.2 14.8 0.00 0.00 0.00 38 1007.4
20260505184524 82 213 4.3 13.9 0.00 0.00 0.00 38 1007.4
20260505183021 81 149 3.5 16.5 0.00 0.00 0.00 39 1007.5
20260505181519 81 190 6.1 15.6 0.00 0.00 0.00 41 1007.8
20260505180021 81 169 5.2 13.9 0.00 0.00 0.00 43 1008.0
20260505174518 80 154 5.2 11.3 0.00 0.00 0.00 45 1007.8
20260505173018 80 246 4.3 10.4 0.00 0.00 0.00 46 1007.9
20260505171517 80 156 2.6 7.0 0.00 0.00 0.00 49 1007.8
20260505170021 79 246 1.7 6.1 0.00 0.00 0.00 49 1008.2
20260505164520 78 182 3.5 8.7 0.00 0.00 0.00 50 1008.5
20260505163019 78 209 2.6 11.3 0.00 0.00 0.00 51 1008.8
20260505161520 77 117 3.5 7.8 0.00 0.00 0.00 52 1008.9
20260505153024 75 294 2.6 10.4 0.00 0.00 0.00 56 1009.6
20260505151520 74 149 2.6 8.7 0.00 0.00 0.00 59 1009.5